[TLELIST] Archives

 

[list_settings.list_name] Current TLEs

October 28th 2012 PDT

HST 1 20580U 90037B 12300.22749045 .00003323 00000-0 22905-3 0 963 2 20580 028.4706 005.7541 0003217 021.9368 338.1341 15.02957108 34455 ISS (ZARYA) 1 25544U 98067A 12302.29742108 .00017017 00000-0 29177-3 0 5396 2 25544 051.6479 180.1697 0016665 217.3592 248.9407 15.51167511798695 CXO 1 25867U 99040B 12301.20419437 .00000000 00000-0 10000-3 0 8068 2 25867 073.6734 355.1179 8721852 278.1644 003.8246 00.37806898 9748 ____________________________________________________________________ These 2-Line ...Continue Reading

[list_settings.list_name] Current TLEs

October 27th 2012 PDT

HST 1 20580U 90037B 12300.22749045 .00003323 00000-0 22905-3 0 963 2 20580 028.4706 005.7541 0003217 021.9368 338.1341 15.02957108 34455 ISS (ZARYA) 1 25544U 98067A 12301.26596155 .00015659 00000-0 26953-3 0 5323 2 25544 051.6492 185.2871 0016682 213.4249 249.2551 15.51129312798539 CXO 1 25867U 99040B 12301.17450455 -.00000374 +00000-0 +00000-0 0 00017 2 25867 073.6808 355.1385 8721802 278.1728 359.7923 00.37806734015186 ____________________________________________________________________ These 2-Line ...Continue Reading

[list_settings.list_name] Current TLEs

October 26th 2012 PDT

HST 1 20580U 90037B 12300.22749045 .00003323 00000-0 22905-3 0 963 2 20580 028.4706 005.7541 0003217 021.9368 338.1341 15.02957108 34455 ISS (ZARYA) 1 25544U 98067A 12300.11391041 .00023967 00000-0 40848-3 0 5288 2 25544 051.6475 191.0010 0016571 209.6013 295.7701 15.51090412798354 CXO 1 25867U 99040B 12301.17558381 -.00000374 00000-0 00000+0 0 8099 2 25867 073.6808 355.1383 8721806 278.1726 359.9391 00.37807090 9658 ____________________________________________________________________ These 2-Line ...Continue Reading

[list_settings.list_name] Current TLEs

October 25th 2012 PDT

HST 1 20580U 90037B 12299.23142079 .00003436 00000-0 23728-3 0 953 2 20580 028.4704 012.2754 0003274 010.9575 349.1256 15.02951230 34304 ISS (ZARYA) 1 25544U 98067A 12299.33353102 .00023893 00000-0 40777-3 0 5262 2 25544 051.6475 194.8740 0016663 206.7773 258.1876 15.51052300798235 CXO 1 25867U 99040B 12301.17558381 -.00000374 00000-0 00000+0 0 8099 2 25867 073.6808 355.1383 8721806 278.1726 359.9391 00.37807090 9658 ____________________________________________________________________ These 2-Line ...Continue Reading

[list_settings.list_name] Current TLEs

October 24th 2012 PDT

HST 1 20580U 90037B 12296.70801520 .00003132 00000-0 21530-3 0 946 2 20580 028.4704 028.8020 0002947 340.9001 019.1514 15.02933900 33921 ISS (ZARYA) 1 25544U 98067A 12298.11723532 .00023947 00000-0 40953-3 0 5171 2 25544 051.6479 200.9083 0016678 202.1230 306.9444 15.50993343798044 CXO 1 25867U 99040B 12298.52958366 -.00000128 +00000-0 +00000-0 0 00012 2 25867 073.6566 355.3373 8725141 278.1643 359.7939 00.37807103015179 ____________________________________________________________________ These 2-Line ...Continue Reading

[list_settings.list_name] Current TLEs

October 23rd 2012 PDT

HST 1 20580U 90037B 12296.70801520 .00003132 00000-0 21530-3 0 946 2 20580 028.4704 028.8020 0002947 340.9001 019.1514 15.02933900 33921 ISS (ZARYA) 1 25544U 98067A 12297.21750956 .00023683 00000-0 40576-3 0 5124 2 25544 051.6484 205.3722 0016676 198.7423 323.3895 15.50949094797902 CXO 1 25867U 99040B 12295.88440239 +.00000018 +00000-0 +00000-0 0 00010 2 25867 073.6345 355.5226 8726591 278.1495 359.8010 00.37804343015161 ____________________________________________________________________ These 2-Line ...Continue Reading

[list_settings.list_name] Current TLEs

October 22nd 2012 PDT

HST 1 20580U 90037B 12295.71192710 .00003022 00000-0 20731-3 0 939 2 20580 028.4702 035.3237 0002958 329.7296 030.3149 15.02927574 33777 ISS (ZARYA) 1 25544U 98067A 12296.47918981 .00022725 00000-0 39021-3 0 5078 2 25544 051.6486 209.0334 0016812 195.4425 161.6596 15.50910008797782 CXO 1 25867U 99040B 12295.88440239 +.00000018 +00000-0 +00000-0 0 00010 2 25867 073.6345 355.5226 8726591 278.1495 359.8010 00.37804343015161 ____________________________________________________________________ These 2-Line ...Continue Reading

[list_settings.list_name] Current TLEs

October 21st 2012 PDT

HST 1 20580U 90037B 12294.71583541 .00002918 00000-0 19981-3 0 921 2 20580 028.4699 041.8448 0002972 319.0307 041.0106 15.02921549 33621 ISS (ZARYA) 1 25544U 98067A 12295.22009646 .00021650 00000-0 37298-3 0 5024 2 25544 051.6488 215.2797 0016863 190.9289 331.7845 15.50848100797599 CXO 1 25867U 99040B 12295.88441005 .00000018 00000-0 00000+0 0 8075 2 25867 073.6342 355.5224 8726618 278.1495 359.8021 00.37803161 9630 ____________________________________________________________________ These 2-Line ...Continue Reading

[list_settings.list_name] Current TLEs

October 20th 2012 PDT

HST 1 20580U 90037B 12293.91895712 .00002676 00000-0 18222-3 0 915 2 20580 028.4698 047.0614 0002961 310.5984 049.4281 15.02916379 33506 ISS (ZARYA) 1 25544U 98067A 12294.37084582 .00020957 00000-0 36182-3 0 4974 2 25544 051.6489 219.4927 0016875 187.5634 270.6601 15.50808924797467 CXO 1 25867U 99040B 12295.88441005 .00000018 00000-0 00000+0 0 8075 2 25867 073.6342 355.5224 8726618 278.1495 359.8021 00.37803161 9630 ____________________________________________________________________ These 2-Line ...Continue Reading

[list_settings.list_name] Current TLEs

October 19th 2012 PDT

HST 1 20580U 90037B 12291.06346532 .00002576 00000-0 17502-3 0 908 2 20580 028.4693 065.7616 0002980 273.8185 086.2044 15.02902827 33076 ISS (ZARYA) 1 25544U 98067A 12293.34824417 .00009641 00000-0 17128-3 0 4919 2 25544 051.6493 224.5648 0016809 185.3634 320.0780 15.50768312797309 CXO 1 25867U 99040B 12293.23989405 -.00000036 +00000-0 +00000-0 0 00011 2 25867 073.6156 355.6911 8727820 278.1342 359.9311 00.37805045015154 ____________________________________________________________________ These 2-Line ...Continue Reading
  • This mailing list is a public mailing list - anyone may join or leave, at any time.
  • This mailing list is announce-only.

International Space Station (ISS) / Hubble Space Telescope (HST) / Chandra X-Ray Observatory Orbital Data via EMAIL

Privacy Policy:

Private list